Location: Archemont
(49.1579°N, 1.7598°E)
Time: 04:44:14
(UTC+00:00)

BlueWalker 3 - Pass Details

Date: 29 February 2024
Orbit: 485 x 495 km, 53.2° (Epoch: 24 April)

Event Time Altitude Azimuth Distance (km) Brightness Sun altitude
Rises 19:48:49 0° 294° (WNW) 2,562 7.0 -22.5°
Reaches altitude 10° 19:51:00 10° 292° (WNW) 1,676 5.7 -22.8°
Enters shadow 19:54:22 60° 246° (WSW) 563 2.3 -23.3°
